Flag for U.S.A. Weather past 2 weeks in Beaumont, Texas, U.S.A.

Now
89 °F

Scattered clouds.


Feels Like: 100 °F
Forecast: 77 / 88 °F
Wind: 13 mph from South

Location: Jefferson County Airport

Current Time: Sep 1, 2014 at 3:02:25 PM

Latest Report: Sep 1, 2014 at 1:53 PM


Visibility: 10 mi

Pressure: 29.96 "Hg

Humidity: 65%

Dew point: 76 °F

Location of BeaumontLocation

Historic Weather in Beaumont — Graph

°F

Beaumont temperature yesterday

Maximum temperature yesterday: 90 °F (at 12:53 PM)
Minimum temperature yesterday: 75 °F (at 3:53 AM)
Average temperature yesterday: 81 °F

Past Weeks' High & Low Weather Summary

 TemperatureHumidityPressure
High97 °F (Aug 25, 2:53 PM)97% (Aug 23, 3:53 AM)30.10 "Hg (Aug 23, 3:53 AM)
Low74 °F (Aug 26, 6:53 AM)42% (Aug 25, 2:53 PM)29.83 "Hg (Aug 25, 5:53 PM)
Average83 °F78%29.96 "Hg
* Reported Aug 17 1:53 PM — Sep 1 1:53 PM, Beaumont, Weather by CustomWeather, © 2014

Note: Actual official high and low records may vary slightly from our data, if they occured in-between our weather recording intervals... More about our weather records

Advertising

Beaumont weather history for previous 24 hours

 ConditionsComfort  
Time TempWeatherWind HumidityBarometerVisibility
1:53 PM
Sep 1
89 °FScattered clouds.13 mph65%29.96 "Hg10 mi
12:53 PM88 °FPartly sunny.15 mph67%29.97 "Hg10 mi
11:53 AM87 °FScattered clouds.13 mph72%29.98 "Hg10 mi
10:53 AM81 °FBroken clouds.No wind85%29.98 "Hg10 mi
9:53 AM85 °FScattered clouds.6 mph83%29.98 "Hg10 mi
8:53 AM83 °FScattered clouds.6 mph85%29.97 "Hg10 mi
7:53 AM81 °FScattered clouds.3 mph91%29.96 "Hg10 mi
6:53 AM78 °FClear.5 mph90%29.95 "Hg10 mi
5:53 AM79 °FClear.3 mph90%29.95 "Hg10 mi
4:53 AM79 °FClear.3 mph90%29.95 "Hg10 mi
3:53 AM79 °FClear.5 mph90%29.95 "Hg10 mi
2:53 AM80 °FClear.6 mph87%29.95 "Hg10 mi
1:53 AM81 °FClear.6 mph88%29.96 "Hg10 mi
12:53 AM81 °FClear.9 mph88%29.96 "Hg9 mi
11:53 PM
Aug 31
81 °FClear.12 mph85%29.97 "Hg10 mi
10:53 PM82 °FMostly cloudy.7 mph88%29.98 "Hg10 mi
9:53 PM81 °FMostly cloudy.No wind88%29.98 "Hg10 mi
8:53 PM81 °FOvercast.No wind85%29.97 "Hg10 mi
7:53 PM80 °FBroken clouds.3 mph87%29.96 "Hg10 mi
6:53 PM79 °FScattered clouds.3 mph90%29.96 "Hg10 mi
5:53 PM79 °FPassing clouds.No wind88%29.98 "Hg10 mi
4:53 PM80 °FThundershowers. Broken clouds.5 mph81%30.00 "Hg10 mi
3:53 PM80 °FThundershowers. Partly sunny.10 mph79%30.01 "Hg10 mi
Weather by CustomWeather, © 2014

See weather overviewHow to use our weather pages